Location: Bonningues
(50.7927°N, 2.0150°E)
Time: 03:06:36
(UTC+00:00)

Cosmos 44 - Pass Details

Date: 08 August 2020
Orbit: 583 x 779 km, 65.1° (Epoch: 25 September)

Event Time Altitude Azimuth Distance (km) Brightness Sun altitude
Rises 21:12:39 0° 320° (NW) 2,988 8.6 -14.3°
Reaches altitude 10° 21:15:05 10° 329° (NNW) 2,106 7.2 -14.5°
Maximum altitude 21:19:31 36° 37° (NE) 1,098 4.4 -15.0°
Enters shadow 21:23:12 15° 98° (E) 1,878 5.1 -15.3°
